This is the latest recevied weather packets stored in our database for station/object SQ6ELQ-11. If no packets are shown the sender has not sent any weather packets the latest 10 day(s).
| Time | Temp. | Humidity | Pressure | Rain* | Wind** | Luminosity | Snow |
|---|---|---|---|---|---|---|---|
| 1778263991 | 7.78° C | 68% | 1019 hPa | 0 mm | - | - | - |
| 1778262946 | 8.33° C | 68% | 1019 hPa | 0 mm | - | - | - |
| 1778261846 | 8.33° C | 67% | 1018.9 hPa | 0 mm | - | - | - |
| 1778260759 | 8.33° C | 67% | 1018.7 hPa | 0 mm | - | - | - |
| 1778259631 | 8.33° C | 67% | 1018.7 hPa | 0 mm | - | - | - |
| 1778258517 | 8.89° C | 65% | 1018.8 hPa | 0 mm | - | - | - |
| 1778257530 | 8.89° C | 65% | 1018.7 hPa | 0 mm | - | - | - |
| 1778256402 | 8.33° C | 66% | 1018.6 hPa | 0 mm | - | - | - |
| 1778255401 | 8.89° C | 63% | 1018.8 hPa | 0 mm | - | - | - |
| 1778254317 | 9.44° C | 60% | 1018.7 hPa | 0 mm | - | - | - |
| 1778253196 | 9.44° C | 59% | 1018.6 hPa | 0 mm | - | - | - |
| 1778252086 | 10° C | 60% | 1018.7 hPa | 0 mm | - | - | - |
| 1778251101 | 10° C | 60% | 1018.5 hPa | 0 mm | - | - | - |
| 1778250021 | 9.44° C | 63% | 1018.8 hPa | 0 mm | - | - | - |
| 1778248931 | 8.33° C | 64% | 1018.9 hPa | 0 mm | - | - | - |
| 1778247796 | 8.33° C | 67% | 1018.7 hPa | 0 mm | - | - | - |
| 1778246697 | 8.89° C | 63% | 1018.7 hPa | 0 mm | - | - | - |
| 1778245671 | 8.89° C | 65% | 1018.5 hPa | 0 mm | - | - | - |
| 1778244641 | 8.33° C | 65% | 1018.7 hPa | 0 mm | - | - | - |
| 1778243576 | 7.78° C | 67% | 1018.7 hPa | 0 mm | - | - | - |
| 1778242531 | 8.33° C | 66% | 1018.7 hPa | 0 mm | - | - | - |
| 1778241397 | 8.33° C | 68% | 1018.6 hPa | 0 mm | - | - | - |
| 1778240361 | 7.22° C | 67% | 1018.6 hPa | 0 mm | - | - | - |
| 1778239345 | 7.78° C | 68% | 1018.6 hPa | 0 mm | - | - | - |
| 1778238261 | 8.33° C | 65% | 1018.6 hPa | 0 mm | - | - | - |
* Rain latest hour (hover to see other rain measurements)
** Current wind speed in m/s (hover to see current wind gust speed)